NW Arkansas Airport, AR

11:02 PM CDT on April 29, 2017 (GMT -0500)
Northwest Arkansas Regional

Weather History for KXNA - November, 2012

Change the Weather History Date:

Monday, November 12, 2012

  Actual Average (KVBT) Record (KVBT)
Temperature  
Mean Temperature 36 °F -  
Max Temperature 46 °F 57 °F 81 °F (1989)
Min Temperature 25 °F 33 °F 13 °F (1976)
Degree Days  
Heating Degree Days 30    
Moisture  
Dew Point 23 °F    
Average Humidity 67    
Maximum Humidity 89    
Minimum Humidity 37    
Precipitation  
Precipitation 0.00 in - - ()
Sea Level Pressure  
Sea Level Pressure 30.43 in    
Wind  
Wind Speed 5 mph (West)    
Max Wind Speed 14 mph    
Max Gust Speed 21 mph    
Visibility 10 miles    
Events      
Averages and records for this station are not official NWS values.
T = Trace of Precipitation, MM = Missing Value Source: NWS Daily Summary

Daily Weather History Graph

Daily Weather History Graph

Search for Another Location

Airport or City:

Trip Planner

Search our weather history database for the weather conditions in past years. The results will help you decide how hot, cold, wet, or windy it might be!

Date:

Astronomy

Nov. 12, 2012 Rise Set
Actual Time 6:51 AM CST 5:10 PM CST
Civil Twilight 6:24 AM CST 5:38 PM CST
Nautical Twilight 5:53 AM CST 6:08 PM CST
Astronomical Twilight 5:23 AM CST 6:39 PM CST
Moon 5:19 AM CST (11/12) 4:15 PM CST (11/12)
Length of Visible Light 11h 13m
Length of Day
10h 19m
Waning Crescent, 2% of the Moon is Illuminated
Nov 12
Waning Crescent
Nov 13
New
Nov 20
First Quarter
Nov 28
Full
Dec 6
Last Quarter

Hourly Weather History & Observations

Time (CST) Temp. Windchill Dew Point Humidity Pressure Visibility Wind Dir Wind Speed Gust Speed Precip Events Conditions
12:53 AM 30.0 °F 24.1 °F 27.0 °F 88% 30.28 in 10.0 mi NNW 5.8 mph - N/A   Clear
1:53 AM 28.9 °F 22.8 °F 24.1 °F 82% 30.31 in 10.0 mi NNW 5.8 mph - N/A   Clear
2:53 AM 28.0 °F 22.8 °F 24.1 °F 85% 30.32 in 10.0 mi NNW 4.6 mph - N/A   Clear
3:53 AM 27.0 °F 23.0 °F 24.1 °F 89% 30.35 in 10.0 mi NW 3.5 mph - N/A   Clear
4:53 AM 27.0 °F 21.6 °F 24.1 °F 89% 30.38 in 10.0 mi NW 4.6 mph - N/A   Clear
5:53 AM 26.1 °F 20.5 °F 23.0 °F 88% 30.39 in 10.0 mi NW 4.6 mph - N/A   Clear
6:53 AM 25.0 °F 19.3 °F 21.9 °F 88% 30.43 in 10.0 mi WNW 4.6 mph - N/A   Clear
7:53 AM 27.0 °F 23.0 °F 24.1 °F 89% 30.44 in 10.0 mi Variable 3.5 mph - N/A   Clear
8:53 AM 30.9 °F 27.5 °F 24.1 °F 76% 30.45 in 10.0 mi South 3.5 mph - N/A   Clear
9:53 AM 35.1 °F - 21.9 °F 59% 30.47 in 10.0 mi Calm Calm - N/A   Clear
10:53 AM 39.9 °F 36.7 °F 21.9 °F 49% 30.47 in 10.0 mi WNW 4.6 mph - N/A   Clear
11:53 AM 44.1 °F 40.1 °F 19.0 °F 37% 30.45 in 10.0 mi West 6.9 mph - N/A   Clear
12:53 PM 45.0 °F 40.1 °F 21.0 °F 39% 30.44 in 10.0 mi West 9.2 mph - N/A   Clear
1:53 PM 46.9 °F - 21.9 °F 37% 30.43 in 10.0 mi West 13.8 mph 20.7 mph N/A   Clear
2:53 PM 46.9 °F - 21.9 °F 37% 30.43 in 10.0 mi West 12.7 mph - N/A   Clear
3:53 PM 46.0 °F 41.0 °F 21.9 °F 39% 30.44 in 10.0 mi West 10.4 mph - N/A   Clear
4:53 PM 43.0 °F 41.3 °F 24.1 °F 47% 30.44 in 10.0 mi West 3.5 mph - N/A   Clear
5:53 PM 39.0 °F 36.8 °F 25.0 °F 57% 30.45 in 10.0 mi WSW 3.5 mph - N/A   Clear
6:53 PM 36.0 °F - 25.0 °F 64% 30.47 in 10.0 mi Calm Calm - N/A   Clear
7:53 PM 33.1 °F 28.7 °F 25.0 °F 72% 30.47 in 10.0 mi SW 4.6 mph - N/A   Clear
8:53 PM 33.1 °F - 25.0 °F 72% 30.48 in 10.0 mi Calm Calm - N/A   Clear
9:53 PM 33.1 °F 27.7 °F 23.0 °F 66% 30.49 in 10.0 mi SW 5.8 mph - N/A   Clear
10:53 PM 32.0 °F 28.7 °F 24.1 °F 73% 30.49 in 10.0 mi SW 3.5 mph - N/A   Clear
11:53 PM 30.9 °F 25.2 °F 25.0 °F 79% 30.49 in 10.0 mi SW 5.8 mph - N/A   Clear